Location: Moscow
(38.3171°N, 79.0889°W)
Time: 22:34:16
(UTC+00:00)

Spot 4 Rocket - Pass Details

Date: 07 November 2025
Orbit: 769 x 773 km, 98.8° (Epoch: 14 December)

Event Time Altitude Azimuth Distance (km) Brightness Sun altitude
Rises 23:16:43 0° 151° (SSE) 3,228 7.1 -13.4°
Reaches altitude 10° 23:19:03 10° 147° (SSE) 2,305 6.3 -13.8°
Maximum altitude 23:23:58 52° 72° (ENE) 959 4.1 -14.8°
Drops below altitude 10° 23:28:54 10° 357° (N) 2,318 6.4 -15.7°
Sets 23:31:15 0° 353° (N) 3,248 7.2 -16.2°
